Weather History for Tunica, MS

Change the Weather History Date:

Saturday, April 27, 2013

  Actual Average (KMEM) Record (KMEM)
Temperature  
Mean Temperature 65 °F 66 °F  
Max Temperature 75 °F 76 °F 92 °F (1987)
Min Temperature 55 °F 57 °F 40 °F (1953)
Degree Days  
Heating Degree Days 0 2  
Month to date heating degree days 131  
Since 1 July heating degree days 2939  
Cooling Degree Days 0 4  
Month to date cooling degree days 64  
Year to date cooling degree days 84  
Growing Degree Days 15 (Base 50)    
Moisture  
Dew Point 59 °F    
Average Humidity 81    
Maximum Humidity 94    
Minimum Humidity 69    
Precipitation  
Precipitation 0.19 in 0.18 in 2.82 in (1991)
Month to date precipitation 4.95  
Year to date precipitation 18.48  
Snow  
Snow 0.00 in 0.00 in - ()
Month to date snowfall 0.0  
Since 1 July snowfall 3.8  
Snow Depth -    
Sea Level Pressure  
Sea Level Pressure 30.05 in    
Wind  
Wind Speed 9 mph (South)    
Max Wind Speed 25 mph    
Max Gust Speed 34 mph    
Visibility 10 miles    
Events Rain , Thunderstorm    
T = Trace of Precipitation, MM = Missing Value Source: NWS Daily Summary

Daily Weather History Graph

Daily Weather History Graph

Search for Another Location

Airport:

Trip Planner

Search our weather history database for the weather conditions in past years. The results will help you decide how hot, cold, wet, or windy it might be!

Date:

Astronomy

Apr. 27, 2013 Rise Set
Actual Time 6:15 AM CDT 7:43 PM CDT
Civil Twilight 5:48 AM CDT 8:10 PM CDT
Nautical Twilight 5:16 AM CDT 8:42 PM CDT
Astronomical Twilight 4:43 AM CDT 9:15 PM CDT
Moon 10:08 PM CDT (4/27) 7:37 AM CDT (4/27)
Length of Visible Light 14h 21m
Length of Day
13h 28m
Waning Gibbous, 95% of the Moon is Illuminated
Apr 27
Waning Gibbous
May 2
Last Quarter
May 9
New
May 17
First Quarter
May 24
Full

Hourly Weather History & Observations

Time (CDT) Temp. Dew Point Humidity Pressure Visibility Wind Dir Wind Speed Gust Speed Precip Events Conditions
12:15 AM 57.2 °F 48.2 °F 72% 30.21 in 10.0 mi East 11.5 mph - N/A   Overcast
12:35 AM 57.2 °F 48.2 °F 72% 30.21 in 10.0 mi East 10.4 mph - N/A   Overcast
12:55 AM 57.2 °F 48.2 °F 72% 30.20 in 10.0 mi ENE 8.1 mph - N/A   Overcast
1:15 AM 57.2 °F 48.2 °F 72% 30.19 in 10.0 mi East 6.9 mph - N/A   Overcast
1:35 AM 55.4 °F 48.2 °F 77% 30.19 in 10.0 mi ENE 4.6 mph - N/A   Mostly Cloudy
1:55 AM 55.4 °F 48.2 °F 77% 30.17 in 10.0 mi East 10.4 mph - N/A   Mostly Cloudy
2:15 AM 57.2 °F 48.2 °F 72% 30.15 in 10.0 mi East 10.4 mph 16.1 mph N/A   Mostly Cloudy
2:35 AM 57.2 °F 48.2 °F 72% 30.15 in 10.0 mi East 6.9 mph - N/A   Mostly Cloudy
2:55 AM 57.2 °F 48.2 °F 72% 30.13 in 10.0 mi ESE 9.2 mph - N/A   Mostly Cloudy
3:15 AM 57.2 °F 50.0 °F 77% 30.12 in 10.0 mi ESE 6.9 mph - N/A   Mostly Cloudy
3:35 AM 57.2 °F 50.0 °F 77% 30.12 in 10.0 mi ESE 5.8 mph - N/A   Overcast
3:55 AM 55.4 °F 50.0 °F 82% 30.11 in 10.0 mi ESE 5.8 mph - N/A   Overcast
4:15 AM 55.4 °F 50.0 °F 82% 30.11 in 10.0 mi SE 6.9 mph - N/A Rain Rain
4:35 AM 55.4 °F 51.8 °F 88% 30.10 in 7.0 mi SE 4.6 mph - 0.04 in Rain , Thunderstorm Light Thunderstorms and Rain
4:55 AM 55.4 °F 51.8 °F 88% 30.09 in 10.0 mi SE 6.9 mph - 0.04 in   Overcast
5:15 AM 55.4 °F 51.8 °F 88% 30.08 in 10.0 mi SE 5.8 mph - 0.01 in Rain Light Rain
6:35 AM 57.2 °F 53.6 °F 88% 30.11 in 10.0 mi Calm Calm - N/A Rain Light Rain
6:55 AM 57.2 °F 53.6 °F 88% 30.10 in 10.0 mi Calm Calm - 0.01 in Rain Light Rain
7:15 AM 57.2 °F 53.6 °F 88% 30.11 in 7.0 mi Calm Calm - 0.02 in Rain , Thunderstorm Rain
7:35 AM 57.2 °F 55.4 °F 94% 30.11 in 10.0 mi Calm Calm - 0.02 in Rain , Thunderstorm Light Thunderstorms and Rain
7:55 AM 59.0 °F 55.4 °F 88% 30.11 in 10.0 mi Calm Calm - 0.02 in   Overcast
8:15 AM 59.0 °F 55.4 °F 88% 30.11 in 10.0 mi Calm Calm - N/A   Overcast
8:35 AM 59.0 °F 55.4 °F 88% 30.11 in 10.0 mi Calm Calm - N/A   Overcast
8:55 AM 60.8 °F 55.4 °F 82% 30.11 in 10.0 mi Calm Calm - N/A   Overcast
9:15 AM 60.8 °F 59.0 °F 94% 30.10 in 10.0 mi SSE 4.6 mph - N/A   Overcast
9:35 AM 66.2 °F 60.8 °F 83% 30.08 in 10.0 mi South 11.5 mph 16.1 mph N/A   Overcast
9:55 AM 66.2 °F 62.6 °F 88% 30.08 in 10.0 mi South 11.5 mph - N/A   Mostly Cloudy
10:15 AM 66.2 °F 62.6 °F 88% 30.08 in 7.0 mi South 11.5 mph - N/A Rain , Thunderstorm Light Thunderstorms and Rain
10:35 AM 66.2 °F 62.6 °F 88% 30.08 in 7.0 mi SSW 9.2 mph - N/A Rain Light Rain
10:55 AM 66.2 °F 62.6 °F 88% 30.08 in 7.0 mi South 10.4 mph 17.3 mph N/A   Overcast
11:15 AM 68.0 °F 64.4 °F 88% 30.08 in 7.0 mi South 8.1 mph - N/A Thunderstorm Thunderstorm
11:35 AM 69.8 °F 64.4 °F 83% 30.08 in 10.0 mi South 11.5 mph - N/A   Mostly Cloudy
11:55 AM 69.8 °F 64.4 °F 83% 30.08 in 10.0 mi SSW 11.5 mph - N/A   Scattered Clouds
12:15 PM 69.8 °F 64.4 °F 83% 30.08 in 10.0 mi SSW 13.8 mph - N/A   Mostly Cloudy
12:35 PM 69.8 °F 64.4 °F 83% 30.08 in 10.0 mi SSW 15.0 mph - 0.01 in   Mostly Cloudy
12:55 PM 69.8 °F 64.4 °F 83% 30.07 in 10.0 mi SSW 11.5 mph - 0.01 in   Overcast
1:15 PM 69.8 °F 62.6 °F 78% 30.06 in 10.0 mi SSW 12.7 mph - N/A   Mostly Cloudy
1:35 PM 69.8 °F 62.6 °F 78% 30.06 in 10.0 mi SSW 10.4 mph - N/A   Mostly Cloudy
1:55 PM 69.8 °F 64.4 °F 83% 30.05 in 10.0 mi South 9.2 mph - N/A   Mostly Cloudy
2:15 PM 71.6 °F 64.4 °F 78% 30.04 in 10.0 mi South 9.2 mph - N/A   Overcast
2:35 PM 71.6 °F 64.4 °F 78% 30.03 in 10.0 mi South 11.5 mph - N/A   Mostly Cloudy
2:55 PM 71.6 °F 64.4 °F 78% 30.02 in 10.0 mi SSW 11.5 mph - N/A   Overcast
3:15 PM 71.6 °F 64.4 °F 78% 30.01 in 10.0 mi SSW 11.5 mph - N/A   Mostly Cloudy
3:35 PM 73.4 °F 64.4 °F 73% 30.00 in 10.0 mi SSW 10.4 mph - N/A Thunderstorm Mostly Cloudy
3:55 PM 73.4 °F 64.4 °F 73% 29.99 in 10.0 mi SSW 12.7 mph - N/A   Overcast
4:15 PM 73.4 °F 64.4 °F 73% 29.98 in 10.0 mi SSW 10.4 mph - N/A   Overcast
4:35 PM 73.4 °F 64.4 °F 73% 29.97 in 10.0 mi SSW 11.5 mph - N/A   Mostly Cloudy
4:55 PM 75.2 °F 64.4 °F 69% 29.96 in 10.0 mi SSW 10.4 mph - N/A   Scattered Clouds
5:15 PM 75.2 °F 64.4 °F 69% 29.95 in 10.0 mi South 12.7 mph - N/A   Scattered Clouds
5:35 PM 73.4 °F 64.4 °F 73% 29.95 in 10.0 mi SSW 15.0 mph 19.6 mph N/A   Clear
5:55 PM 73.4 °F 64.4 °F 73% 29.94 in 10.0 mi SSW 9.2 mph - N/A   Clear
6:15 PM 73.4 °F 64.4 °F 73% 29.95 in 10.0 mi SSW 10.4 mph 16.1 mph N/A   Clear
6:35 PM 73.4 °F 64.4 °F 73% 29.93 in 10.0 mi South 10.4 mph - N/A   Clear
6:55 PM 71.6 °F 64.4 °F 78% 29.93 in 10.0 mi South 10.4 mph - N/A   Clear
7:15 PM 71.6 °F 62.6 °F 73% 29.91 in 10.0 mi South 11.5 mph 17.3 mph N/A   Clear
7:35 PM 71.6 °F 62.6 °F 73% 29.89 in 10.0 mi South 16.1 mph 23.0 mph N/A   Clear
7:55 PM 71.6 °F 64.4 °F 78% 29.89 in 10.0 mi South 17.3 mph 23.0 mph N/A Rain , Thunderstorm Light Thunderstorms and Rain
8:15 PM 71.6 °F 64.4 °F 78% 29.88 in 10.0 mi SSW 25.3 mph 34.5 mph N/A Rain , Thunderstorm Light Thunderstorms and Rain
8:35 PM 69.8 °F 64.4 °F 83% 29.90 in 10.0 mi SSW 19.6 mph 32.2 mph N/A Rain Light Rain
8:55 PM 69.8 °F 64.4 °F 83% 29.90 in 10.0 mi SW 12.7 mph - N/A   Scattered Clouds
9:15 PM 68.0 °F 64.4 °F 88% 29.92 in 10.0 mi WSW 13.8 mph 19.6 mph N/A Rain Light Rain
9:55 PM 64.4 °F 60.8 °F 88% 29.98 in 10.0 mi WSW 15.0 mph - N/A   Mostly Cloudy
10:15 PM 64.4 °F 60.8 °F 88% 29.97 in 10.0 mi WNW 9.2 mph - N/A Rain Light Rain
10:35 PM 62.6 °F 60.8 °F 94% 29.97 in 10.0 mi NW 10.4 mph - N/A   Mostly Cloudy
11:15 PM 62.6 °F 59.0 °F 88% 30.00 in 10.0 mi West 5.8 mph - N/A   Overcast
11:35 PM 60.8 °F 59.0 °F 94% 29.99 in 10.0 mi West 8.1 mph - N/A Thunderstorm Overcast
11:55 PM 60.8 °F 59.0 °F 94% 30.00 in 4.0 mi WNW 9.2 mph - 0.10 in Rain Heavy Rain